This demonstration page uses our WeatherBlox Daily Observations layout. Learn more.

41.55636, -103.73856

Hourly Observations for September 26, 2020

Temp ( °F °C ) Dew Point ( °F °C ) Humidity (%) Winds ( mph kmh ) Pressure ( in mb ) Visibility ( mi km ) Precip ( " mm )
12:58 am 00:58 Mostly Cloudy 65 18.2 34 1.2 32 32 S 9 15 29.75 1007 10 16.0934 0 0
1:58 am 01:58 Mostly Clear 67 19.3 33 0.3 28 28 SW 9 15 29.72 1007 10 16.0934 0 0
2:58 am 02:58 Mostly Clear 64 17.6 28 -2.4 26 26 W 14 22 29.7 1006 10 16.0934 0 0
3:58 am 03:58 Clear 65 18.4 23 -5 20 20 W 14 22 29.68 1005 10 16.0934 0 0
4:58 am 04:58 Clear 60 15.6 24 -4.7 25 25 W 12 19 29.7 1006 10 16.0934 0 0
5:58 am 05:58 Clear 56 13.4 25 -4.1 30 30 W 10 17 29.73 1007 10 16.0934 0 0
6:58 am 06:58 Mostly Sunny 54 12.3 25 -3.8 33 33 W 9 15 29.74 1007 9 14.48406 0 0
7:58 am 07:58 Hazy 56 13.6 27 -2.6 33 33 N 3 6 29.73 1007 5 8.0467 0 0
8:58 am 08:58 Hazy 68 19.9 28 -2.5 22 22 WNW 6 9 29.63 1003 4 6.43736 0 0
9:59 am 09:59 Sunny 77 25 25 -4 14 14 W 25 41 29.67 1005 9 14.48406 0 0
10:58 am 10:58 Sunny 79 25.9 28 -2.2 16 16 W 21 33 29.67 1005 10 16.0934 0 0
11:59 am 11:59 Mostly Sunny 80 26.6 28 -2.2 15 15 WNW 26 43 29.66 1004 10 16.0934 0 0
12:58 pm 12:58 Partly Cloudy 81 27 32 -0.2 17 17 WNW 29 46 29.66 1005 10 16.0934 0 0
1:58 pm 13:58 Mostly Cloudy 80 26.4 31 -0.7 17 17 WNW 32 52 29.66 1005 10 16.0934 0 0
2:58 pm 14:58 Mostly Cloudy 76 24.2 34 1 22 22 N 21 33 29.69 1005 10 16.0934 0 0
4:58 pm 16:58 Mostly Sunny 67 19.4 37 2.5 33 33 N 24 39 29.78 1009 10 16.0934 0 0
5:58 pm 17:58 Sunny 64 17.8 36 2.4 36 36 N 18 30 29.82 1010 10 16.0934 0 0
6:58 pm 18:58 Clear 58 14.6 36 2.4 44 44 NNE 12 19 29.85 1011 10 16.0934 0 0
7:58 pm 19:58 Mostly Cloudy 56 13.1 37 2.5 49 49 NE 9 15 29.87 1012 10 16.0934 0 0
8:58 pm 20:58 Partly Cloudy 53 11.8 38 3.1 56 56 E 6 9 29.87 1012 10 16.0934 0 0
9:58 pm 21:58 Partly Cloudy 54 12 38 3.1 55 55 Calm 29.85 1011 10 16.0934 0 0
10:58 pm 22:58 Mostly Cloudy 54 12 38 3.2 55 55 Calm 29.87 1011 10 16.0934 0 0
11:58 pm 23:58 Mostly Cloudy with Light Showers 52 11 43 6.1 72 72 SSE 8 13 29.88 1012 10 16.0934 0 0

Powered by AerisWeather